TimeEST,TemperatureF,Dew PointF,Humidity,Sea Level PressureIn,VisibilityMPH,Wind Direction,Wind SpeedMPH,Gust SpeedMPH,PrecipitationIn,Events,Conditions,WindDirDegrees,DateUTC
12:53 AM,23.0,18.0,81,30.27,10.0,SW,6.9,-,N/A,,Clear,220,2012-11-28 05:53:00
1:53 AM,23.0,18.0,81,30.26,10.0,SW,4.6,-,N/A,,Clear,220,2012-11-28 06:53:00
2:53 AM,18.0,15.1,88,30.27,10.0,WSW,4.6,-,N/A,,Clear,250,2012-11-28 07:53:00
3:53 AM,18.0,14.0,84,30.26,10.0,SW,4.6,-,N/A,,Clear,220,2012-11-28 08:53:00
4:53 AM,18.0,14.0,84,30.26,10.0,Calm,Calm,-,N/A,,Clear,0,2012-11-28 09:53:00
5:53 AM,18.0,15.1,88,30.25,10.0,Calm,Calm,-,N/A,,Clear,0,2012-11-28 10:53:00
6:53 AM,19.9,16.0,85,30.25,10.0,Calm,Calm,-,N/A,,Overcast,0,2012-11-28 11:53:00
7:53 AM,23.0,18.0,81,30.26,10.0,Calm,Calm,-,N/A,,Overcast,0,2012-11-28 12:53:00
8:53 AM,25.0,21.0,85,30.25,10.0,Calm,Calm,-,N/A,,Overcast,0,2012-11-28 13:53:00
9:53 AM,28.0,23.0,81,30.25,10.0,Calm,Calm,-,N/A,,Overcast,0,2012-11-28 14:53:00
10:53 AM,32.0,24.1,73,30.24,10.0,Calm,Calm,-,N/A,,Mostly Cloudy,0,2012-11-28 15:53:00
11:53 AM,34.0,19.9,56,30.21,10.0,Variable,3.5,-,N/A,,Overcast,0,2012-11-28 16:53:00
12:53 PM,36.0,19.9,52,30.20,10.0,West,9.2,-,0.00,,Overcast,260,2012-11-28 17:53:00
1:53 PM,37.0,21.0,52,30.18,10.0,West,9.2,-,N/A,,Overcast,280,2012-11-28 18:53:00
2:53 PM,37.0,21.0,52,30.18,10.0,West,15.0,-,N/A,,Overcast,260,2012-11-28 19:53:00
3:53 PM,37.0,21.0,52,30.19,10.0,West,10.4,-,N/A,,Overcast,260,2012-11-28 20:53:00
4:53 PM,36.0,23.0,59,30.21,10.0,West,10.4,18.4,N/A,,Overcast,280,2012-11-28 21:53:00
5:53 PM,34.0,25.0,70,30.24,7.0,West,11.5,18.4,0.00,Snow,Light Snow,280,2012-11-28 22:53:00
6:53 PM,34.0,25.0,70,30.26,10.0,WSW,6.9,-,0.00,,Overcast,250,2012-11-28 23:53:00
7:53 PM,33.1,25.0,72,30.26,10.0,WSW,5.8,-,N/A,,Overcast,240,2012-11-29 00:53:00
8:53 PM,32.0,25.0,75,30.27,10.0,SW,4.6,-,N/A,,Overcast,220,2012-11-29 01:53:00
9:53 PM,33.1,25.0,72,30.27,10.0,SW,4.6,-,N/A,,Overcast,230,2012-11-29 02:53:00
10:53 PM,33.1,25.0,72,30.27,10.0,SW,4.6,-,0.00,,Overcast,230,2012-11-29 03:53:00
11:53 PM,32.0,26.1,79,30.27,10.0,SW,3.5,-,N/A,,Overcast,220,2012-11-29 04:53:00